Time,TemperatureF,DewpointF,PressureIn,WindDirection,WindDirectionDegrees,WindSpeedMPH,WindSpeedGustMPH,Humidity,HourlyPrecipIn,Conditions,Clouds,dailyrainin,SoftwareType,DateUTC
2013-04-28 00:01:00,71.8,70.6,30.03,ENE,72,14.0,14.0,96,0.00,,---,0.00,VWS V14.01,2013-04-28 05:01:00,
2013-04-28 00:06:00,71.8,70.6,30.04,ENE,58,6.0,17.0,96,0.00,,---,0.00,VWS V14.01,2013-04-28 05:06:00,
2013-04-28 00:11:00,71.8,70.6,30.06,NE,53,8.0,18.0,96,0.00,,---,0.00,VWS V14.01,2013-04-28 05:11:00,
2013-04-28 00:16:00,71.9,70.7,30.06,ENE,60,8.0,18.0,96,0.00,,---,0.00,VWS V14.01,2013-04-28 05:16:00,
2013-04-28 00:21:00,71.9,70.7,30.06,ENE,65,10.0,18.0,96,0.00,,---,0.00,VWS V14.01,2013-04-28 05:21:00,
2013-04-28 00:26:00,71.9,70.7,30.05,ENE,70,6.0,18.0,96,0.00,,---,0.00,VWS V14.01,2013-04-28 05:26:00,
2013-04-28 00:31:00,71.9,70.7,30.05,ENE,62,13.0,18.0,96,0.01,,---,0.01,VWS V14.01,2013-04-28 05:31:00,
2013-04-28 00:36:00,71.9,70.7,30.06,ENE,65,14.0,18.0,96,0.01,,---,0.01,VWS V14.01,2013-04-28 05:36:00,
2013-04-28 00:41:00,71.9,70.7,30.06,NE,55,9.0,18.0,96,0.01,,---,0.01,VWS V14.01,2013-04-28 05:41:00,
2013-04-28 00:46:00,71.9,70.7,30.06,ENE,75,6.0,18.0,96,0.02,,---,0.02,VWS V14.01,2013-04-28 05:46:00,
2013-04-28 00:51:00,71.8,70.6,30.06,NE,55,12.0,18.0,96,0.02,,---,0.02,VWS V14.01,2013-04-28 05:51:00,
2013-04-28 00:56:00,71.8,70.6,30.05,ENE,68,13.0,18.0,96,0.03,,---,0.03,VWS V14.01,2013-04-28 05:56:00,
2013-04-28 01:01:00,71.7,70.5,30.05,NE,53,6.0,12.0,96,0.05,,---,0.05,VWS V14.01,2013-04-28 06:01:00,
2013-04-28 01:06:00,71.6,70.4,30.04,ENE,57,7.0,14.0,96,0.06,,---,0.06,VWS V14.01,2013-04-28 06:06:00,
2013-04-28 01:11:00,71.6,70.4,30.04,ENE,68,14.0,18.0,96,0.08,,---,0.08,VWS V14.01,2013-04-28 06:11:00,
2013-04-28 01:16:00,71.6,70.4,30.04,ENE,78,8.0,18.0,96,0.09,,---,0.09,VWS V14.01,2013-04-28 06:16:00,
2013-04-28 01:21:00,71.6,70.4,30.04,ENE,68,9.0,18.0,96,0.11,,---,0.11,VWS V14.01,2013-04-28 06:21:00,
2013-04-28 01:26:00,71.6,70.7,30.03,ENE,67,10.0,18.0,97,0.12,,---,0.12,VWS V14.01,2013-04-28 06:26:00,
2013-04-28 01:31:00,71.6,70.7,30.03,East,91,8.0,18.0,97,0.13,,---,0.13,VWS V14.01,2013-04-28 06:31:00,
2013-04-28 01:36:00,71.6,70.7,30.02,NE,53,17.0,18.0,97,0.14,,---,0.14,VWS V14.01,2013-04-28 06:36:00,
2013-04-28 01:41:00,71.5,70.6,30.02,ENE,77,17.0,23.0,97,0.15,,---,0.15,VWS V14.01,2013-04-28 06:41:00,
2013-04-28 01:46:00,71.5,70.6,30.01,ENE,64,14.0,23.0,97,0.15,,---,0.15,VWS V14.01,2013-04-28 06:46:00,
2013-04-28 01:51:00,71.5,70.6,30.01,ENE,58,14.0,23.0,97,0.15,,---,0.15,VWS V14.01,2013-04-28 06:51:00,
2013-04-28 01:56:00,71.5,70.6,30.01,ENE,69,14.0,23.0,97,0.16,,---,0.16,VWS V14.01,2013-04-28 06:56:00,
2013-04-28 02:01:00,70.3,68.5,30.02,ENE,57,12.0,18.0,94,0.11,,---,0.16,VWS V14.01,2013-04-28 07:01:00,
2013-04-28 02:06:00,69.3,67.8,30.02,ENE,62,12.0,22.0,95,0.11,,---,0.16,VWS V14.01,2013-04-28 07:06:00,
2013-04-28 02:11:00,69.2,67.7,30.02,NE,54,12.0,22.0,95,0.11,,---,0.16,VWS V14.01,2013-04-28 07:11:00,
2013-04-28 02:16:00,69.3,67.8,30.03,NE,34,14.0,22.0,95,0.11,,---,0.16,VWS V14.01,2013-04-28 07:16:00,
2013-04-28 02:21:00,69.1,67.6,30.03,ENE,58,16.0,22.0,95,0.12,,---,0.17,VWS V14.01,2013-04-28 07:21:00,
2013-04-28 02:26:00,68.8,67.3,30.03,NE,46,12.0,22.0,95,0.12,,---,0.17,VWS V14.01,2013-04-28 07:26:00,
2013-04-28 02:31:00,68.7,67.2,30.02,ENE,67,17.0,22.0,95,0.13,,---,0.18,VWS V14.01,2013-04-28 07:31:00,
2013-04-28 02:36:00,68.6,67.1,30.00,NE,39,12.0,22.0,95,0.14,,---,0.19,VWS V14.01,2013-04-28 07:36:00,
2013-04-28 02:41:00,68.6,67.1,30.00,NNE,27,13.0,22.0,95,0.15,,---,0.20,VWS V14.01,2013-04-28 07:41:00,
2013-04-28 02:46:00,68.6,67.1,30.00,ENE,60,14.0,22.0,95,0.16,,---,0.21,VWS V14.01,2013-04-28 07:46:00,
2013-04-28 02:51:00,68.4,67.2,30.00,NE,56,17.0,22.0,96,0.17,,---,0.22,VWS V14.01,2013-04-28 07:51:00,
2013-04-28 02:56:00,68.3,67.1,30.00,NNE,27,9.0,22.0,96,0.20,,---,0.25,VWS V14.01,2013-04-28 07:56:00,
2013-04-28 03:01:00,68.2,67.0,30.01,NE,34,9.0,12.0,96,0.11,,---,0.27,VWS V14.01,2013-04-28 08:01:00,
2013-04-28 03:28:00,66.1,64.9,30.04,NE,37,16.0,22.0,96,0.45,,---,0.61,VWS V14.01,2013-04-28 08:28:00,
2013-04-28 03:34:00,65.6,64.4,30.05,North,356,9.0,22.0,96,0.64,,---,0.80,VWS V14.01,2013-04-28 08:34:00,
2013-04-28 03:39:00,65.2,64.0,30.08,NW,326,8.0,22.0,96,0.83,,---,0.99,VWS V14.01,2013-04-28 08:39:00,
2013-04-28 03:44:00,64.9,64.0,30.08,NW,324,9.0,22.0,97,1.07,,---,1.23,VWS V14.01,2013-04-28 08:44:00,
2013-04-28 03:49:00,65.0,64.1,30.08,NNW,333,4.0,22.0,97,1.40,,---,1.56,VWS V14.01,2013-04-28 08:49:00,
2013-04-28 03:54:00,64.9,64.0,30.08,North,6,9.0,22.0,97,1.74,,---,1.90,VWS V14.01,2013-04-28 08:54:00,
2013-04-28 03:59:00,65.0,64.4,30.09,NNE,25,8.0,22.0,98,1.87,,---,2.03,VWS V14.01,2013-04-28 08:59:00,
2013-04-28 04:04:00,64.8,64.2,30.09,NE,37,12.0,15.0,98,1.87,,---,2.14,VWS V14.01,2013-04-28 09:04:00,
2013-04-28 04:09:00,64.8,64.2,30.08,NE,55,12.0,15.0,98,2.15,,---,2.42,VWS V14.01,2013-04-28 09:09:00,
2013-04-28 04:14:00,64.4,63.5,30.05,East,82,12.0,19.0,97,2.31,,---,2.58,VWS V14.01,2013-04-28 09:14:00,
2013-04-28 04:19:00,64.4,63.8,30.03,NE,54,12.0,23.0,98,2.36,,---,2.63,VWS V14.01,2013-04-28 09:19:00,
2013-04-28 04:23:00,64.3,63.7,30.01,ENE,70,16.0,23.0,98,2.41,,---,2.68,VWS V14.01,2013-04-28 09:23:00,
2013-04-28 04:29:00,64.0,63.1,29.98,East,84,18.0,25.0,97,2.45,,---,2.72,VWS V14.01,2013-04-28 09:29:00,
2013-04-28 04:33:00,64.3,63.7,29.93,East,94,17.0,25.0,98,2.46,,---,2.73,VWS V14.01,2013-04-28 09:33:00,
2013-04-28 04:38:00,64.2,63.6,29.88,ENE,64,19.0,33.0,98,2.48,,---,2.75,VWS V14.01,2013-04-28 09:38:00,
2013-04-28 04:43:00,64.1,63.2,29.91,ENE,72,28.0,35.0,97,2.48,,---,2.75,VWS V14.01,2013-04-28 09:43:00,
2013-04-28 04:48:00,64.4,63.8,29.93,ENE,67,23.0,35.0,98,2.49,,---,2.76,VWS V14.01,2013-04-28 09:48:00,
2013-04-28 04:53:00,64.8,64.2,29.95,NE,56,13.0,35.0,98,2.49,,---,2.76,VWS V14.01,2013-04-28 09:53:00,
2013-04-28 04:58:00,64.4,63.2,29.96,ESE,104,13.0,35.0,96,2.49,,---,2.76,VWS V14.01,2013-04-28 09:58:00,
2013-04-28 05:03:00,64.6,63.4,29.96,ENE,69,16.0,22.0,96,0.70,,---,2.76,VWS V14.01,2013-04-28 10:03:00,
2013-04-28 05:08:00,64.9,63.4,29.95,NE,56,10.0,22.0,95,0.70,,---,2.76,VWS V14.01,2013-04-28 10:08:00,
2013-04-28 05:13:00,65.1,63.6,29.96,ENE,71,10.0,22.0,95,0.70,,---,2.76,VWS V14.01,2013-04-28 10:13:00,
2013-04-28 05:18:00,65.3,63.8,29.96,ENE,75,10.0,22.0,95,0.70,,---,2.76,VWS V14.01,2013-04-28 10:18:00,
2013-04-28 05:23:00,65.4,63.9,29.96,ENE,69,14.0,22.0,95,0.70,,---,2.76,VWS V14.01,2013-04-28 10:23:00,
2013-04-28 05:28:00,65.5,63.7,29.95,East,86,11.0,22.0,94,0.70,,---,2.76,VWS V14.01,2013-04-28 10:28:00,
2013-04-28 05:33:00,65.6,63.8,29.96,East,81,14.0,22.0,94,0.70,,---,2.76,VWS V14.01,2013-04-28 10:33:00,
2013-04-28 05:38:00,65.6,63.8,29.96,ENE,66,13.0,22.0,94,0.70,,---,2.76,VWS V14.01,2013-04-28 10:38:00,
2013-04-28 05:43:00,65.7,63.9,29.95,ENE,65,9.0,22.0,94,0.70,,---,2.76,VWS V14.01,2013-04-28 10:43:00,
2013-04-28 05:48:00,65.8,64.0,29.95,East,96,8.0,22.0,94,0.70,,---,2.76,VWS V14.01,2013-04-28 10:48:00,
2013-04-28 05:53:00,66.0,63.9,29.95,East,97,12.0,22.0,93,0.70,,---,2.76,VWS V14.01,2013-04-28 10:53:00,
2013-04-28 05:58:00,66.3,63.9,29.95,ENE,78,12.0,22.0,92,0.70,,---,2.76,VWS V14.01,2013-04-28 10:58:00,
2013-04-28 06:03:00,66.5,63.8,29.94,ENE,60,13.0,20.0,91,0.00,,---,2.76,VWS V14.01,2013-04-28 11:03:00,
2013-04-28 06:08:00,66.7,63.7,29.94,NE,50,8.0,20.0,90,0.00,,---,2.76,VWS V14.01,2013-04-28 11:08:00,
2013-04-28 06:13:00,67.0,63.7,29.95,ENE,66,14.0,21.0,89,0.00,,---,2.76,VWS V14.01,2013-04-28 11:13:00,
2013-04-28 06:18:00,67.2,63.5,29.95,ENE,66,6.0,21.0,88,0.00,,---,2.76,VWS V14.01,2013-04-28 11:18:00,
2013-04-28 06:23:00,67.4,63.7,29.95,East,98,12.0,22.0,88,0.00,,---,2.76,VWS V14.01,2013-04-28 11:23:00,
2013-04-28 06:28:00,67.5,63.8,29.95,ENE,68,9.0,22.0,88,0.00,,---,2.76,VWS V14.01,2013-04-28 11:28:00,
2013-04-28 06:33:00,67.6,63.9,29.95,East,99,9.0,22.0,88,0.00,,---,2.76,VWS V14.01,2013-04-28 11:33:00,
2013-04-28 06:38:00,67.6,63.6,29.95,ENE,66,10.0,22.0,87,0.00,,---,2.76,VWS V14.01,2013-04-28 11:38:00,
2013-04-28 06:43:00,67.7,63.7,29.95,East,86,18.0,22.0,87,0.00,,---,2.76,VWS V14.01,2013-04-28 11:43:00,
2013-04-28 06:48:00,67.8,63.5,29.95,East,87,11.0,22.0,86,0.00,,---,2.76,VWS V14.01,2013-04-28 11:48:00,
2013-04-28 06:53:00,67.9,63.2,29.95,East,84,7.0,22.0,85,0.00,,---,2.76,VWS V14.01,2013-04-28 11:53:00,
2013-04-28 06:58:00,68.0,63.3,29.95,East,89,11.0,22.0,85,0.00,,---,2.76,VWS V14.01,2013-04-28 11:58:00,
2013-04-28 07:03:00,68.3,62.9,29.95,East,101,10.0,19.0,83,0.00,,---,2.76,VWS V14.01,2013-04-28 12:03:00,
2013-04-28 07:08:00,68.4,63.0,29.95,NE,46,5.0,19.0,83,0.00,,---,2.76,VWS V14.01,2013-04-28 12:08:00,
2013-04-28 07:13:00,68.3,62.9,29.95,East,83,11.0,19.0,83,0.00,,---,2.76,VWS V14.01,2013-04-28 12:13:00,
2013-04-28 07:18:00,68.5,63.1,29.95,East,98,8.0,19.0,83,0.00,,---,2.76,VWS V14.01,2013-04-28 12:18:00,
2013-04-28 07:23:00,68.9,63.2,29.95,East,84,10.0,19.0,82,0.00,,---,2.76,VWS V14.01,2013-04-28 12:23:00,
2013-04-28 07:28:00,69.3,62.9,29.95,East,95,9.0,19.0,80,0.00,,---,2.76,VWS V14.01,2013-04-28 12:28:00,
2013-04-28 07:33:00,69.6,63.2,29.95,ESE,103,8.0,19.0,80,0.00,,---,2.76,VWS V14.01,2013-04-28 12:33:00,
2013-04-28 07:38:00,69.7,63.3,29.95,ENE,64,8.0,19.0,80,0.00,,---,2.76,VWS V14.01,2013-04-28 12:38:00,
2013-04-28 07:43:00,70.0,63.5,29.95,East,81,6.0,19.0,80,0.00,,---,2.76,VWS V14.01,2013-04-28 12:43:00,
2013-04-28 07:48:00,70.3,63.5,29.96,East,82,6.0,19.0,79,0.00,,---,2.76,VWS V14.01,2013-04-28 12:48:00,
2013-04-28 07:53:00,70.6,63.8,29.96,East,101,11.0,19.0,79,0.00,,---,2.76,VWS V14.01,2013-04-28 12:53:00,
2013-04-28 07:58:00,70.9,63.7,29.96,East,84,7.0,19.0,78,0.00,,---,2.76,VWS V14.01,2013-04-28 12:58:00,
2013-04-28 08:03:00,71.2,63.6,29.96,East,91,9.0,15.0,77,0.00,,---,2.76,VWS V14.01,2013-04-28 13:03:00,
2013-04-28 08:08:00,71.3,63.7,29.95,ESE,115,5.0,17.0,77,0.00,,---,2.76,VWS V14.01,2013-04-28 13:08:00,
2013-04-28 08:13:00,71.4,63.8,29.96,ESE,105,13.0,18.0,77,0.00,,---,2.76,VWS V14.01,2013-04-28 13:13:00,
2013-04-28 08:18:00,71.4,63.8,29.96,ESE,122,9.0,18.0,77,0.00,,---,2.76,VWS V14.01,2013-04-28 13:18:00,
2013-04-28 08:23:00,71.2,64.0,29.95,East,96,10.0,18.0,78,0.00,,---,2.76,VWS V14.01,2013-04-28 13:23:00,
2013-04-28 08:28:00,71.0,64.2,29.95,ESE,112,14.0,19.0,79,0.00,,---,2.76,VWS V14.01,2013-04-28 13:28:00,
2013-04-28 08:33:00,70.9,64.4,29.95,ENE,72,10.0,19.0,80,0.00,,---,2.76,VWS V14.01,2013-04-28 13:33:00,
2013-04-28 08:38:00,71.0,64.5,29.96,East,96,10.0,19.0,80,0.00,,---,2.76,VWS V14.01,2013-04-28 13:38:00,
2013-04-28 08:43:00,71.0,64.9,29.96,ESE,107,14.0,19.0,81,0.00,,---,2.76,VWS V14.01,2013-04-28 13:43:00,
2013-04-28 08:48:00,71.1,64.6,29.96,ESE,111,9.0,19.0,80,0.00,,---,2.76,VWS V14.01,2013-04-28 13:48:00,
2013-04-28 08:53:00,71.3,64.8,29.97,East,101,12.0,19.0,80,0.00,,---,2.76,VWS V14.01,2013-04-28 13:53:00,
2013-04-28 08:58:00,71.5,65.0,29.97,East,86,11.0,19.0,80,0.00,,---,2.76,VWS V14.01,2013-04-28 13:58:00,
2013-04-28 09:03:00,71.7,65.2,29.97,ESE,110,6.0,16.0,80,0.00,,---,2.76,VWS V14.01,2013-04-28 14:03:00,
2013-04-28 09:08:00,71.9,65.0,29.97,ESE,107,11.0,17.0,79,0.00,,---,2.76,VWS V14.01,2013-04-28 14:08:00,
2013-04-28 09:13:00,72.2,65.3,29.97,ESE,105,15.0,17.0,79,0.00,,---,2.76,VWS V14.01,2013-04-28 14:13:00,
2013-04-28 09:18:00,72.2,65.0,29.98,East,94,14.0,17.0,78,0.00,,---,2.76,VWS V14.01,2013-04-28 14:18:00,
2013-04-28 09:23:00,72.2,65.3,29.98,ESE,105,11.0,17.0,79,0.00,,---,2.76,VWS V14.01,2013-04-28 14:23:00,
2013-04-28 09:28:00,72.4,65.5,29.98,ESE,115,10.0,17.0,79,0.00,,---,2.76,VWS V14.01,2013-04-28 14:28:00,
2013-04-28 09:33:00,72.4,65.2,29.98,East,86,6.0,17.0,78,0.00,,---,2.76,VWS V14.01,2013-04-28 14:33:00,
2013-04-28 09:38:00,72.6,65.0,29.99,ENE,70,6.0,17.0,77,0.00,,---,2.76,VWS V14.01,2013-04-28 14:38:00,
2013-04-28 09:43:00,72.7,65.4,29.99,East,96,12.0,17.0,78,0.00,,---,2.76,VWS V14.01,2013-04-28 14:43:00,
2013-04-28 09:48:00,72.6,65.3,29.99,East,89,10.0,17.0,78,0.00,,---,2.76,VWS V14.01,2013-04-28 14:48:00,
2013-04-28 09:53:00,72.6,65.3,29.99,East,85,9.0,17.0,78,0.00,,---,2.76,VWS V14.01,2013-04-28 14:53:00,
2013-04-28 09:58:00,72.6,65.7,29.99,East,91,8.0,17.0,79,0.00,,---,2.76,VWS V14.01,2013-04-28 14:58:00,
2013-04-28 10:03:00,72.7,66.2,29.99,ENE,75,5.0,11.0,80,0.00,,---,2.76,VWS V14.01,2013-04-28 15:03:00,
2013-04-28 10:08:00,72.9,66.4,29.99,East,91,6.0,11.0,80,0.00,,---,2.76,VWS V14.01,2013-04-28 15:08:00,
2013-04-28 10:13:00,72.7,66.2,29.99,ENE,67,7.0,11.0,80,0.00,,---,2.76,VWS V14.01,2013-04-28 15:13:00,
2013-04-28 10:18:00,72.6,66.1,30.00,ESE,105,8.0,11.0,80,0.00,,---,2.76,VWS V14.01,2013-04-28 15:18:00,
2013-04-28 10:23:00,72.7,66.5,30.00,ESE,111,9.0,11.0,81,0.00,,---,2.76,VWS V14.01,2013-04-28 15:23:00,
2013-04-28 10:28:00,72.8,67.0,30.00,East,79,5.0,12.0,82,0.00,,---,2.76,VWS V14.01,2013-04-28 15:28:00,
2013-04-28 10:33:00,72.9,66.7,30.00,ENE,75,6.0,12.0,81,0.00,,---,2.76,VWS V14.01,2013-04-28 15:33:00,
2013-04-28 10:38:00,72.9,67.1,30.00,ESE,115,6.0,12.0,82,0.00,,---,2.76,VWS V14.01,2013-04-28 15:38:00,
2013-04-28 10:43:00,72.8,67.0,30.00,East,85,7.0,12.0,82,0.00,,---,2.76,VWS V14.01,2013-04-28 15:43:00,
2013-04-28 10:48:00,73.1,67.3,30.00,ENE,65,10.0,12.0,82,0.00,,---,2.76,VWS V14.01,2013-04-28 15:48:00,
2013-04-28 10:53:00,73.3,66.8,30.00,ENE,71,9.0,12.0,80,0.00,,---,2.76,VWS V14.01,2013-04-28 15:53:00,
2013-04-28 10:58:00,73.3,66.8,30.00,ENE,71,7.0,12.0,80,0.00,,---,2.76,VWS V14.01,2013-04-28 15:58:00,
2013-04-28 11:03:00,73.4,67.9,30.00,NE,50,7.0,8.0,83,0.00,,---,2.76,VWS V14.01,2013-04-28 16:03:00,
2013-04-28 11:08:00,73.3,67.1,30.00,East,87,6.0,9.0,81,0.00,,---,2.76,VWS V14.01,2013-04-28 16:08:00,
2013-04-28 11:13:00,73.0,67.2,30.00,ENE,72,6.0,10.0,82,0.00,,---,2.76,VWS V14.01,2013-04-28 16:13:00,
2013-04-28 11:18:00,73.4,66.9,30.00,ENE,60,9.0,10.0,80,0.00,,---,2.76,VWS V14.01,2013-04-28 16:18:00,
2013-04-28 11:23:00,73.0,66.8,30.00,ENE,61,9.0,10.0,81,0.00,,---,2.76,VWS V14.01,2013-04-28 16:23:00,
2013-04-28 11:28:00,72.9,66.4,30.00,ENE,65,8.0,11.0,80,0.00,,---,2.76,VWS V14.01,2013-04-28 16:28:00,
2013-04-28 11:33:00,72.8,66.6,30.00,ENE,57,5.0,11.0,81,0.00,,---,2.76,VWS V14.01,2013-04-28 16:33:00,
2013-04-28 11:38:00,73.1,66.9,30.00,ENE,63,5.0,11.0,81,0.00,,---,2.76,VWS V14.01,2013-04-28 16:38:00,
2013-04-28 11:43:00,73.1,67.3,30.00,ENE,58,5.0,11.0,82,0.00,,---,2.76,VWS V14.01,2013-04-28 16:43:00,
2013-04-28 11:48:00,73.1,67.3,30.01,East,98,4.0,11.0,82,0.00,,---,2.76,VWS V14.01,2013-04-28 16:48:00,
2013-04-28 11:53:00,73.0,66.8,30.01,East,89,7.0,11.0,81,0.00,,---,2.76,VWS V14.01,2013-04-28 16:53:00,
2013-04-28 11:58:00,73.0,67.2,30.01,ESE,102,7.0,11.0,82,0.00,,---,2.76,VWS V14.01,2013-04-28 16:58:00,
2013-04-28 12:03:00,72.8,67.0,30.01,East,94,4.0,8.0,82,0.00,,---,2.76,VWS V14.01,2013-04-28 17:03:00,
2013-04-28 12:08:00,72.7,67.2,30.00,ENE,71,4.0,8.0,83,0.00,,---,2.76,VWS V14.01,2013-04-28 17:08:00,
2013-04-28 12:13:00,72.6,67.2,30.00,ENE,58,7.0,9.0,83,0.00,,---,2.76,VWS V14.01,2013-04-28 17:13:00,
2013-04-28 12:18:00,72.4,66.9,30.00,ENE,58,6.0,9.0,83,0.00,,---,2.76,VWS V14.01,2013-04-28 17:18:00,
2013-04-28 12:23:00,72.4,67.3,30.00,ESE,103,3.0,9.0,84,0.00,,---,2.76,VWS V14.01,2013-04-28 17:23:00,
2013-04-28 12:28:00,72.6,67.5,30.00,ESE,122,3.0,9.0,84,0.00,,---,2.76,VWS V14.01,2013-04-28 17:28:00,
2013-04-28 12:33:00,72.4,67.6,30.00,East,99,6.0,9.0,85,0.00,,---,2.76,VWS V14.01,2013-04-28 17:33:00,
2013-04-28 12:38:00,72.3,67.5,30.00,East,100,4.0,9.0,85,0.00,,---,2.76,VWS V14.01,2013-04-28 17:38:00,
2013-04-28 12:43:00,72.5,67.7,30.00,ESE,102,6.0,9.0,85,0.00,,---,2.76,VWS V14.01,2013-04-28 17:43:00,
2013-04-28 12:48:00,72.5,68.1,29.99,ENE,70,8.0,10.0,86,0.00,,---,2.76,VWS V14.01,2013-04-28 17:48:00,
2013-04-28 12:53:00,72.3,67.9,29.99,East,101,4.0,10.0,86,0.00,,---,2.76,VWS V14.01,2013-04-28 17:53:00,
2013-04-28 12:58:00,72.3,67.9,29.98,ESE,112,8.0,10.0,86,0.00,,---,2.76,VWS V14.01,2013-04-28 17:58:00,
2013-04-28 13:03:00,72.4,68.0,29.98,ESE,102,4.0,7.0,86,0.00,,---,2.76,VWS V14.01,2013-04-28 18:03:00,
2013-04-28 13:08:00,72.4,68.0,29.99,East,96,4.0,7.0,86,0.00,,---,2.76,VWS V14.01,2013-04-28 18:08:00,
2013-04-28 13:13:00,72.4,68.0,29.99,East,96,3.0,7.0,86,0.00,,---,2.76,VWS V14.01,2013-04-28 18:13:00,
2013-04-28 13:18:00,72.6,68.5,29.98,ESE,115,3.0,7.0,87,0.00,,---,2.76,VWS V14.01,2013-04-28 18:18:00,
2013-04-28 13:23:00,72.4,68.0,29.98,ESE,110,6.0,8.0,86,0.00,,---,2.76,VWS V14.01,2013-04-28 18:23:00,
2013-04-28 13:28:00,72.2,67.8,29.97,ENE,63,6.0,9.0,86,0.00,,---,2.76,VWS V14.01,2013-04-28 18:28:00,
2013-04-28 13:33:00,72.2,67.8,29.97,ESE,105,6.0,9.0,86,0.00,,---,2.76,VWS V14.01,2013-04-28 18:33:00,
2013-04-28 13:38:00,72.2,68.1,29.96,ENE,68,8.0,9.0,87,0.00,,---,2.76,VWS V14.01,2013-04-28 18:38:00,
2013-04-28 13:43:00,72.1,68.0,29.95,ENE,64,7.0,9.0,87,0.00,,---,2.76,VWS V14.01,2013-04-28 18:43:00,
2013-04-28 13:48:00,72.2,68.1,29.95,NE,37,2.0,9.0,87,0.00,,---,2.76,VWS V14.01,2013-04-28 18:48:00,
2013-04-28 13:53:00,72.2,68.1,29.95,East,100,7.0,9.0,87,0.00,,---,2.76,VWS V14.01,2013-04-28 18:53:00,
2013-04-28 13:58:00,72.3,67.9,29.95,ESE,105,2.0,9.0,86,0.00,,---,2.76,VWS V14.01,2013-04-28 18:58:00,
2013-04-28 14:03:00,72.3,67.5,29.95,ENE,73,5.0,8.0,85,0.00,,---,2.76,VWS V14.01,2013-04-28 19:03:00,
2013-04-28 14:08:00,72.2,67.4,29.94,ENE,74,6.0,9.0,85,0.00,,---,2.76,VWS V14.01,2013-04-28 19:08:00,
2013-04-28 14:13:00,72.2,67.4,29.95,ENE,75,7.0,9.0,85,0.00,,---,2.76,VWS V14.01,2013-04-28 19:13:00,
2013-04-28 14:18:00,72.2,67.8,29.94,ENE,62,5.0,9.0,86,0.00,,---,2.76,VWS V14.01,2013-04-28 19:18:00,
2013-04-28 14:23:00,72.2,67.8,29.95,ENE,68,6.0,9.0,86,0.00,,---,2.76,VWS V14.01,2013-04-28 19:23:00,
2013-04-28 14:28:00,72.0,67.6,29.94,East,97,8.0,9.0,86,0.00,,---,2.76,VWS V14.01,2013-04-28 19:28:00,
2013-04-28 14:33:00,72.0,67.9,29.92,ENE,77,7.0,11.0,87,0.00,,---,2.76,VWS V14.01,2013-04-28 19:33:00,
2013-04-28 14:38:00,71.9,67.8,29.92,East,98,8.0,12.0,87,0.00,,---,2.76,VWS V14.01,2013-04-28 19:38:00,
2013-04-28 14:43:00,71.9,67.5,29.92,ENE,78,6.0,12.0,86,0.00,,---,2.76,VWS V14.01,2013-04-28 19:43:00,
2013-04-28 14:48:00,71.9,67.5,29.92,ENE,69,5.0,15.0,86,0.00,,---,2.76,VWS V14.01,2013-04-28 19:48:00,
2013-04-28 14:53:00,72.0,67.6,29.92,ENE,68,6.0,15.0,86,0.00,,---,2.76,VWS V14.01,2013-04-28 19:53:00,
2013-04-28 14:58:00,72.1,67.7,29.92,ENE,71,9.0,15.0,86,0.00,,---,2.76,VWS V14.01,2013-04-28 19:58:00,
2013-04-28 15:03:00,72.0,67.6,29.92,East,91,6.0,11.0,86,0.00,,---,2.76,VWS V14.01,2013-04-28 20:03:00,
2013-04-28 15:08:00,72.2,67.4,29.92,ESE,112,6.0,11.0,85,0.00,,---,2.76,VWS V14.01,2013-04-28 20:08:00,
2013-04-28 15:13:00,72.3,67.5,29.91,East,83,7.0,13.0,85,0.00,,---,2.76,VWS V14.01,2013-04-28 20:13:00,
2013-04-28 15:18:00,72.3,67.9,29.91,ENE,70,6.0,14.0,86,0.00,,---,2.76,VWS V14.01,2013-04-28 20:18:00,
2013-04-28 15:23:00,72.2,67.8,29.92,ENE,70,9.0,14.0,86,0.00,,---,2.76,VWS V14.01,2013-04-28 20:23:00,
2013-04-28 15:28:00,72.0,67.9,29.92,ESE,113,7.0,14.0,87,0.00,,---,2.76,VWS V14.01,2013-04-28 20:28:00,
2013-04-28 15:33:00,71.8,67.4,29.93,East,101,5.0,14.0,86,0.00,,---,2.76,VWS V14.01,2013-04-28 20:33:00,
2013-04-28 15:38:00,71.8,67.7,29.93,ENE,64,7.0,14.0,87,0.00,,---,2.76,VWS V14.01,2013-04-28 20:38:00,
2013-04-28 15:43:00,71.8,67.7,29.93,ENE,70,4.0,14.0,87,0.00,,---,2.76,VWS V14.01,2013-04-28 20:43:00,
2013-04-28 15:48:00,71.9,67.8,29.92,East,96,5.0,14.0,87,0.00,,---,2.76,VWS V14.01,2013-04-28 20:48:00,
2013-04-28 15:53:00,72.1,68.0,29.92,ESE,107,7.0,14.0,87,0.00,,---,2.76,VWS V14.01,2013-04-28 20:53:00,
2013-04-28 15:58:00,72.3,68.2,29.92,East,94,13.0,14.0,87,0.00,,---,2.76,VWS V14.01,2013-04-28 20:58:00,
2013-04-28 16:03:00,72.5,68.4,29.91,East,92,11.0,14.0,87,0.00,,---,2.76,VWS V14.01,2013-04-28 21:03:00,
2013-04-28 16:08:00,72.5,68.4,29.91,East,80,8.0,14.0,87,0.00,,---,2.76,VWS V14.01,2013-04-28 21:08:00,
2013-04-28 16:13:00,72.4,68.3,29.91,East,85,5.0,14.0,87,0.00,,---,2.76,VWS V14.01,2013-04-28 21:13:00,
2013-04-28 16:18:00,72.3,68.2,29.90,ENE,76,10.0,15.0,87,0.00,,---,2.76,VWS V14.01,2013-04-28 21:18:00,
2013-04-28 16:23:00,72.1,68.3,29.91,ESE,115,2.0,15.0,88,0.00,,---,2.76,VWS V14.01,2013-04-28 21:23:00,
2013-04-28 16:28:00,72.2,68.4,29.90,ESE,118,7.0,15.0,88,0.00,,---,2.76,VWS V14.01,2013-04-28 21:28:00,
2013-04-28 16:33:00,72.2,68.4,29.90,ENE,64,5.0,15.0,88,0.00,,---,2.76,VWS V14.01,2013-04-28 21:33:00,
2013-04-28 16:38:00,72.4,68.7,29.90,East,91,6.0,15.0,88,0.00,,---,2.76,VWS V14.01,2013-04-28 21:38:00,
2013-04-28 16:43:00,72.3,68.6,29.89,ESE,115,7.0,15.0,88,0.00,,---,2.76,VWS V14.01,2013-04-28 21:43:00,
2013-04-28 16:48:00,72.4,68.7,29.89,East,81,8.0,15.0,88,0.00,,---,2.76,VWS V14.01,2013-04-28 21:48:00,
2013-04-28 16:53:00,72.6,68.8,29.89,East,79,10.0,15.0,88,0.00,,---,2.76,VWS V14.01,2013-04-28 21:53:00,
2013-04-28 16:58:00,72.7,68.9,29.89,ESE,120,4.0,15.0,88,0.00,,---,2.76,VWS V14.01,2013-04-28 21:58:00,
2013-04-28 17:03:00,72.8,69.4,29.89,NE,55,6.0,11.0,89,0.00,,---,2.76,VWS V14.01,2013-04-28 22:03:00,
2013-04-28 17:08:00,73.1,69.7,29.88,East,90,9.0,11.0,89,0.00,,---,2.76,VWS V14.01,2013-04-28 22:08:00,
2013-04-28 17:13:00,73.5,69.7,29.88,ESE,115,7.0,12.0,88,0.00,,---,2.76,VWS V14.01,2013-04-28 22:13:00,
2013-04-28 17:18:00,73.6,69.5,29.88,East,89,10.0,14.0,87,0.00,,---,2.76,VWS V14.01,2013-04-28 22:18:00,
2013-04-28 17:23:00,73.5,69.7,29.88,ENE,64,7.0,14.0,88,0.00,,---,2.76,VWS V14.01,2013-04-28 22:23:00,
2013-04-28 17:28:00,73.5,70.1,29.88,East,79,7.0,14.0,89,0.00,,---,2.76,VWS V14.01,2013-04-28 22:28:00,
2013-04-28 17:33:00,73.5,69.4,29.88,ESE,106,8.0,14.0,87,0.00,,---,2.76,VWS V14.01,2013-04-28 22:33:00,
2013-04-28 17:38:00,73.2,69.4,29.88,NE,53,9.0,14.0,88,0.00,,---,2.76,VWS V14.01,2013-04-28 22:38:00,
2013-04-28 17:43:00,73.1,69.3,29.88,ENE,65,11.0,14.0,88,0.00,,---,2.76,VWS V14.01,2013-04-28 22:43:00,
2013-04-28 17:48:00,73.1,69.7,29.88,ENE,69,12.0,14.0,89,0.00,,---,2.76,VWS V14.01,2013-04-28 22:48:00,
2013-04-28 17:53:00,73.2,69.8,29.88,ENE,66,5.0,14.0,89,0.00,,---,2.76,VWS V14.01,2013-04-28 22:53:00,
2013-04-28 17:58:00,73.2,69.8,29.88,ENE,70,10.0,14.0,89,0.00,,---,2.76,VWS V14.01,2013-04-28 22:58:00,
2013-04-28 18:03:00,73.1,69.7,29.88,ENE,57,9.0,13.0,89,0.00,,---,2.76,VWS V14.01,2013-04-28 23:03:00,
2013-04-28 18:08:00,73.0,69.9,29.88,ENE,61,6.0,13.0,90,0.00,,---,2.76,VWS V14.01,2013-04-28 23:08:00,
2013-04-28 18:13:00,72.6,69.5,29.88,ENE,70,8.0,14.0,90,0.00,,---,2.76,VWS V14.01,2013-04-28 23:13:00,
2013-04-28 18:18:00,72.4,69.6,29.88,ENE,63,9.0,14.0,91,0.00,,---,2.76,VWS V14.01,2013-04-28 23:18:00,
2013-04-28 18:23:00,72.2,69.4,29.88,ENE,75,8.0,14.0,91,0.00,,---,2.76,VWS V14.01,2013-04-28 23:23:00,
2013-04-28 18:28:00,72.4,69.6,29.88,ENE,75,5.0,14.0,91,0.00,,---,2.76,VWS V14.01,2013-04-28 23:28:00,
2013-04-28 18:33:00,72.3,69.5,29.88,East,96,7.0,14.0,91,0.00,,---,2.76,VWS V14.01,2013-04-28 23:33:00,
2013-04-28 18:38:00,72.2,69.4,29.88,ENE,73,8.0,14.0,91,0.00,,---,2.76,VWS V14.01,2013-04-28 23:38:00,
2013-04-28 18:43:00,72.2,69.8,29.88,ENE,69,13.0,14.0,92,0.00,,---,2.76,VWS V14.01,2013-04-28 23:43:00,
2013-04-28 18:48:00,72.2,69.8,29.88,ENE,77,13.0,14.0,92,0.00,,---,2.76,VWS V14.01,2013-04-28 23:48:00,
2013-04-28 18:53:00,72.0,69.6,29.88,ENE,58,9.0,14.0,92,0.00,,---,2.76,VWS V14.01,2013-04-28 23:53:00,
2013-04-28 18:58:00,71.8,69.3,29.88,ENE,66,8.0,14.0,92,0.00,,---,2.76,VWS V14.01,2013-04-28 23:58:00,
2013-04-28 19:03:00,71.7,69.6,29.88,ENE,66,8.0,12.0,93,0.00,,---,2.76,VWS V14.01,2013-04-29 00:03:00,
2013-04-28 19:08:00,71.6,69.5,29.88,ENE,63,12.0,15.0,93,0.00,,---,2.76,VWS V14.01,2013-04-29 00:08:00,
2013-04-28 19:13:00,71.4,69.3,29.88,ENE,77,6.0,16.0,93,0.00,,---,2.76,VWS V14.01,2013-04-29 00:13:00,
2013-04-28 19:18:00,71.3,69.2,29.88,ENE,64,14.0,16.0,93,0.00,,---,2.76,VWS V14.01,2013-04-29 00:18:00,
2013-04-28 19:23:00,71.2,69.4,29.88,East,87,5.0,16.0,94,0.00,,---,2.76,VWS V14.01,2013-04-29 00:23:00,
2013-04-28 19:28:00,71.1,69.3,29.88,ENE,66,6.0,16.0,94,0.00,,---,2.76,VWS V14.01,2013-04-29 00:28:00,
2013-04-28 19:33:00,71.1,69.3,29.88,ENE,65,9.0,16.0,94,0.00,,---,2.76,VWS V14.01,2013-04-29 00:33:00,
2013-04-28 19:38:00,71.0,69.2,29.89,ENE,62,6.0,16.0,94,0.00,,---,2.76,VWS V14.01,2013-04-29 00:38:00,
2013-04-28 19:43:00,70.9,69.1,29.89,ENE,71,8.0,16.0,94,0.00,,---,2.76,VWS V14.01,2013-04-29 00:43:00,
2013-04-28 19:48:00,70.9,69.4,29.89,ENE,61,5.0,16.0,95,0.00,,---,2.76,VWS V14.01,2013-04-29 00:48:00,
2013-04-28 19:53:00,70.8,69.3,29.89,ENE,67,10.0,16.0,95,0.00,,---,2.76,VWS V14.01,2013-04-29 00:53:00,
2013-04-28 19:58:00,70.8,69.3,29.89,ENE,65,9.0,16.0,95,0.00,,---,2.76,VWS V14.01,2013-04-29 00:58:00,
2013-04-28 20:03:00,70.8,69.3,29.89,ENE,66,5.0,12.0,95,0.00,,---,2.76,VWS V14.01,2013-04-29 01:03:00,
2013-04-28 20:08:00,70.7,69.2,29.89,ENE,67,8.0,12.0,95,0.00,,---,2.76,VWS V14.01,2013-04-29 01:08:00,
2013-04-28 20:13:00,70.7,69.2,29.90,ENE,70,7.0,12.0,95,0.00,,---,2.76,VWS V14.01,2013-04-29 01:13:00,
2013-04-28 20:18:00,70.7,69.2,29.89,ENE,73,6.0,12.0,95,0.00,,---,2.76,VWS V14.01,2013-04-29 01:18:00,
2013-04-28 20:23:00,70.7,69.2,29.89,ENE,74,7.0,12.0,95,0.00,,---,2.76,VWS V14.01,2013-04-29 01:23:00,
2013-04-28 20:28:00,70.7,69.5,29.89,ENE,78,11.0,12.0,96,0.00,,---,2.76,VWS V14.01,2013-04-29 01:28:00,
2013-04-28 20:33:00,70.7,69.5,29.89,ENE,65,8.0,12.0,96,0.00,,---,2.76,VWS V14.01,2013-04-29 01:33:00,
2013-04-28 20:38:00,70.8,69.6,29.89,ENE,72,9.0,14.0,96,0.00,,---,2.76,VWS V14.01,2013-04-29 01:38:00,
2013-04-28 20:43:00,70.8,69.6,29.89,East,84,8.0,14.0,96,0.00,,---,2.76,VWS V14.01,2013-04-29 01:43:00,
2013-04-28 20:48:00,70.7,69.5,29.89,ENE,64,10.0,14.0,96,0.00,,---,2.76,VWS V14.01,2013-04-29 01:48:00,
2013-04-28 20:53:00,70.7,69.5,29.89,ENE,63,10.0,14.0,96,0.00,,---,2.76,VWS V14.01,2013-04-29 01:53:00,
2013-04-28 20:58:00,70.7,69.5,29.89,NE,53,6.0,14.0,96,0.00,,---,2.76,VWS V14.01,2013-04-29 01:58:00,
2013-04-28 21:03:00,70.7,69.5,29.89,ENE,68,7.0,10.0,96,0.00,,---,2.76,VWS V14.01,2013-04-29 02:03:00,
2013-04-28 21:08:00,70.7,69.5,29.90,ENE,61,6.0,11.0,96,0.00,,---,2.76,VWS V14.01,2013-04-29 02:08:00,
2013-04-28 21:13:00,70.7,69.5,29.90,ENE,67,8.0,11.0,96,0.00,,---,2.76,VWS V14.01,2013-04-29 02:13:00,
2013-04-28 21:18:00,70.7,69.5,29.90,ENE,66,6.0,11.0,96,0.00,,---,2.76,VWS V14.01,2013-04-29 02:18:00,
2013-04-28 21:23:00,70.8,69.6,29.91,ENE,65,8.0,11.0,96,0.00,,---,2.76,VWS V14.01,2013-04-29 02:23:00,
2013-04-28 21:28:00,70.9,69.7,29.91,ENE,64,9.0,12.0,96,0.00,,---,2.76,VWS V14.01,2013-04-29 02:28:00,
2013-04-28 21:33:00,70.9,69.7,29.91,East,96,6.0,12.0,96,0.00,,---,2.76,VWS V14.01,2013-04-29 02:33:00,
2013-04-28 21:38:00,70.9,69.7,29.92,ENE,63,4.0,12.0,96,0.00,,---,2.76,VWS V14.01,2013-04-29 02:38:00,
2013-04-28 21:43:00,70.9,69.7,29.92,East,90,5.0,12.0,96,0.00,,---,2.76,VWS V14.01,2013-04-29 02:43:00,
2013-04-28 21:48:00,70.9,69.7,29.92,ENE,70,5.0,12.0,96,0.00,,---,2.76,VWS V14.01,2013-04-29 02:48:00,
2013-04-28 21:53:00,70.9,69.7,29.93,ENE,67,4.0,12.0,96,0.00,,---,2.76,VWS V14.01,2013-04-29 02:53:00,
2013-04-28 21:58:00,70.9,69.7,29.93,East,95,3.0,12.0,96,0.00,,---,2.76,VWS V14.01,2013-04-29 02:58:00,
2013-04-28 22:03:00,70.8,69.6,29.93,ENE,64,5.0,8.0,96,0.00,,---,2.76,VWS V14.01,2013-04-29 03:03:00,
2013-04-28 22:08:00,70.8,69.6,29.93,ENE,77,6.0,9.0,96,0.00,,---,2.76,VWS V14.01,2013-04-29 03:08:00,
2013-04-28 22:13:00,70.8,69.6,29.93,ENE,63,6.0,9.0,96,0.00,,---,2.76,VWS V14.01,2013-04-29 03:13:00,
2013-04-28 22:18:00,70.8,69.6,29.93,ENE,69,4.0,10.0,96,0.00,,---,2.76,VWS V14.01,2013-04-29 03:18:00,
2013-04-28 22:23:00,70.8,69.6,29.93,ENE,77,3.0,10.0,96,0.00,,---,2.76,VWS V14.01,2013-04-29 03:23:00,
2013-04-28 22:28:00,70.7,69.5,29.93,East,87,3.0,10.0,96,0.00,,---,2.76,VWS V14.01,2013-04-29 03:28:00,
2013-04-28 22:33:00,70.7,69.8,29.93,ENE,70,5.0,10.0,97,0.00,,---,2.76,VWS V14.01,2013-04-29 03:33:00,
2013-04-28 22:38:00,70.8,69.9,29.93,East,98,5.0,10.0,97,0.00,,---,2.76,VWS V14.01,2013-04-29 03:38:00,
2013-04-28 22:43:00,70.8,69.6,29.93,ENE,59,7.0,10.0,96,0.00,,---,2.76,VWS V14.01,2013-04-29 03:43:00,
2013-04-28 22:48:00,70.8,69.6,29.93,ENE,74,6.0,10.0,96,0.00,,---,2.76,VWS V14.01,2013-04-29 03:48:00,
2013-04-28 22:53:00,70.8,69.6,29.93,ENE,65,4.0,10.0,96,0.00,,---,2.76,VWS V14.01,2013-04-29 03:53:00,
2013-04-28 22:58:00,70.7,69.5,29.93,East,81,5.0,10.0,96,0.00,,---,2.76,VWS V14.01,2013-04-29 03:58:00,
2013-04-28 23:01:00,70.7,69.5,29.93,East,83,5.0,9.0,96,0.00,,---,2.76,VWS V14.01,2013-04-29 04:01:00,
2013-04-28 23:06:00,70.7,69.5,29.93,ENE,61,10.0,11.0,96,0.00,,---,2.76,VWS V14.01,2013-04-29 04:06:00,
2013-04-28 23:11:00,70.7,69.5,29.93,East,82,6.0,12.0,96,0.00,,---,2.76,VWS V14.01,2013-04-29 04:11:00,
2013-04-28 23:16:00,70.7,69.5,29.93,East,79,4.0,12.0,96,0.00,,---,2.76,VWS V14.01,2013-04-29 04:16:00,
2013-04-28 23:21:00,70.7,69.5,29.93,East,83,9.0,12.0,96,0.00,,---,2.76,VWS V14.01,2013-04-29 04:21:00,
2013-04-28 23:26:00,70.7,69.5,29.92,ENE,72,7.0,12.0,96,0.00,,---,2.76,VWS V14.01,2013-04-29 04:26:00,
2013-04-28 23:31:00,70.6,69.7,29.92,ENE,57,8.0,12.0,97,0.00,,---,2.76,VWS V14.01,2013-04-29 04:31:00,
2013-04-28 23:36:00,70.6,69.7,29.92,ENE,63,7.0,12.0,97,0.00,,---,2.76,VWS V14.01,2013-04-29 04:36:00,
2013-04-28 23:41:00,70.5,69.6,29.92,ENE,61,10.0,12.0,97,0.00,,---,2.76,VWS V14.01,2013-04-29 04:41:00,
2013-04-28 23:46:00,70.6,69.7,29.93,ENE,77,7.0,12.0,97,0.00,,---,2.76,VWS V14.01,2013-04-29 04:46:00,
2013-04-28 23:51:00,70.6,69.7,29.93,East,86,6.0,12.0,97,0.00,,---,2.76,VWS V14.01,2013-04-29 04:51:00,
2013-04-28 23:56:00,70.5,69.6,29.93,East,79,6.0,12.0,97,0.00,,---,2.76,VWS V14.01,2013-04-29 04:56:00,